Time[GMT],current_speed[cm/s](2m),current_direction[angular_degrees](2m),temperature[C](2m),current_u[cm/s](2m),current_v[cm/s](2m),signal_strength[db](2m),tilt[degrees](2m)
2021-11-04 19:00,,,,,,0.67,9.75
2021-11-04 20:00,,,,,,1.26,9.24
2021-11-04 21:00,,,,,,-0.65,9.45
2021-11-04 22:00,,,,,,-0.43,8.81
2021-11-04 23:00,,,,,,-0.23,8.80
2021-11-05 00:00,,,,,,1.18,7.35
2021-11-05 01:00,,,,,,0.81,8.30
2021-11-05 02:00,,,,,,0.65,8.21
2021-11-05 03:00,,,,,,0.79,6.43
2021-11-05 04:00,,,,,,1.39,6.97
2021-11-05 05:00,,,,,,-0.64,6.99
2021-11-05 06:00,,,,,,-1.02,8.87
2021-11-05 07:00,,,,,,-1.89,7.57
2021-11-05 08:00,,,,,,-2.21,14.63
2021-11-05 09:00,,,,,,-1.03,20.48
2021-11-05 10:00,,,,,,3.93,17.90
2021-11-05 11:00,,,,,,-0.52,23.56
2021-11-05 12:00,,,,,,-2.77,20.05
2021-11-05 13:00,,,,,,-5.28,20.68
2021-11-05 14:00,,,,,,-6.21,22.66
2021-11-05 15:00,,,,,,-5.07,20.74
2021-11-05 16:00,,,,,,5.08,20.16
2021-11-05 17:00,,,,,,-2.13,18.27
2021-11-05 18:00,,,,,,2.16,18.94
2021-11-05 19:00,,,,,,-1.06,18.31
2021-11-05 20:00,,,,,,0.54,18.16
2021-11-05 21:00,,,,,,0.77,15.74
2021-11-05 22:00,,,,,,0.00,16.17
2021-11-05 23:00,,,,,,,
2021-11-06 00:00,,,,,,0.21,17.87
2021-11-06 01:00,,,,,,2.16,13.28
2021-11-06 02:00,,,,,,0.60,12.48
2021-11-06 03:00,,,,,,0.17,11.44
2021-11-06 04:00,,,,,,-0.02,10.90
2021-11-06 05:00,,,,,,-0.75,10.28
2021-11-06 06:00,,,,,,2.88,12.79
2021-11-06 07:00,,,,,,-1.90,10.47
2021-11-06 08:00,,,,,,-0.47,9.96
2021-11-06 09:00,,,,,,-1.09,8.87
2021-11-06 10:00,,,,,,-1.27,7.85
2021-11-06 11:00,,,,,,-0.15,7.88
2021-11-06 12:00,,,,,,-0.65,8.88
2021-11-06 13:00,,,,,,1.09,10.02
2021-11-06 14:00,,,,,,0.47,10.77
2021-11-06 15:00,,,,,,1.39,8.14
2021-11-06 16:00,,,,,,1.67,9.37
2021-11-06 17:00,,,,,,1.54,7.97
2021-11-06 18:00,,,,,,0.28,7.70
2021-11-06 19:00,,,,,,-0.17,7.43
2021-11-06 20:00,,,,,,-0.07,8.33
2021-11-06 21:00,,,,,,-1.48,12.03
2021-11-06 22:00,,,,,,-3.26,19.60
2021-11-06 23:00,,,,,,3.06,19.61
2021-11-07 00:00,,,,,,2.02,19.26
2021-11-07 01:00,,,,,,3.70,17.80
2021-11-07 02:00,,,,,,-4.16,21.60
2021-11-07 03:00,,,,,,-4.37,21.45
2021-11-07 04:00,,,,,,-1.66,19.83
2021-11-07 06:00,,,,,,-1.08,15.06
2021-11-07 07:00,,,,,,1.58,15.62
2021-11-07 08:00,,,,,,2.94,14.38
2021-11-07 09:00,,,,,,1.47,15.85
2021-11-07 10:00,,,,,,0.50,14.03
2021-11-07 11:00,,,,,,0.79,14.13
2021-11-07 12:00,,,,,,1.19,12.20
2021-11-07 13:00,,,,,,0.97,10.98
2021-11-07 14:00,,,,,,0.28,11.47
2021-11-07 15:00,,,,,,2.18,9.61
2021-11-07 16:00,,,,,,1.00,10.40
2021-11-07 17:00,,,,,,0.11,10.22
2021-11-07 18:00,,,,,,0.27,9.74
2021-11-07 19:00,,,,,,0.19,9.50
2021-11-07 20:00,,,,,,0.25,8.28
2021-11-07 21:00,,,,,,1.17,9.77
2021-11-07 22:00,,,,,,1.15,7.26
2021-11-07 23:00,,,,,,0.37,7.55
2021-11-08 00:00,,,,,,0.45,7.83
2021-11-08 01:00,,,,,,0.66,8.12
2021-11-08 02:00,,,,,,1.13,7.30
2021-11-08 03:00,,,,,,1.75,6.95
2021-11-08 04:00,,,,,,1.95,6.21
2021-11-08 05:00,,,,,,0.31,7.22
2021-11-08 06:00,,,,,,0.18,7.45
2021-11-08 07:00,,,,,,-0.10,6.58
2021-11-08 08:00,,,,,,-0.45,7.40
2021-11-08 09:00,,,,,,-1.37,6.64
2021-11-08 10:00,,,,,,-3.26,8.88
2021-11-08 11:00,,,,,,-4.00,15.67
2021-11-08 12:00,,,,,,2.46,14.74
2021-11-08 13:00,,,,,,-1.76,15.08
2021-11-08 14:00,,,,,,0.08,19.30
2021-11-08 15:00,,,,,,1.51,12.93
2021-11-08 16:00,,,,,,-0.78,13.10
2021-11-08 17:00,,,,,,1.40,11.60
2021-11-08 18:00,,,,,,1.02,11.96
2021-11-08 19:00,,,,,,0.75,10.73
2021-11-08 20:00,,,,,,,
2021-11-08 21:00,,,,,,0.84,9.59
2021-11-08 22:00,,,,,,-0.24,9.31
2021-11-08 23:00,,,,,,0.11,9.61
2021-11-09 00:00,,,,,,0.08,8.38
2021-11-09 01:00,,,,,,-1.60,10.20
2021-11-09 02:00,,,,,,0.14,10.81
2021-11-09 03:00,,,,,,-0.65,10.86
2021-11-09 04:00,,,,,,-0.86,10.54
2021-11-09 05:00,,,,,,0.10,11.52
2021-11-09 06:00,,,,,,1.45,10.63
2021-11-09 07:00,,,,,,-0.43,10.50
2021-11-09 08:00,,,,,,0.96,11.55
2021-11-09 09:00,,,,,,1.73,10.63
2021-11-09 10:00,,,,,,2.02,11.09
2021-11-09 11:00,,,,,,1.85,12.49
2021-11-09 12:00,,,,,,1.38,13.39
2021-11-09 13:00,,,,,,-0.62,13.57
2021-11-09 14:00,,,,,,-0.28,12.62
2021-11-09 15:00,,,,,,-1.79,16.57
2021-11-09 16:00,,,,,,0.31,14.60
2021-11-09 17:00,,,,,,0.44,14.22
2021-11-09 18:00,,,,,,0.33,11.11
2021-11-09 19:00,,,,,,0.50,9.57
2021-11-09 20:00,,,,,,0.27,9.72
2021-11-09 21:00,,,,,,0.46,9.38
2021-11-09 22:00,,,,,,2.38,9.01
2021-11-09 23:00,,,,,,1.37,9.25
2021-11-10 00:00,,,,,,1.59,10.45
2021-11-10 01:00,,,,,,1.46,8.35
2021-11-10 02:00,,,,,,0.81,8.79
2021-11-10 03:00,,,,,,1.69,8.78
2021-11-10 04:00,,,,,,0.20,9.12
2021-11-10 05:00,,,,,,0.18,9.97
2021-11-10 06:00,,,,,,-0.35,8.41
2021-11-10 08:00,,,,,,4.76,23.60
2021-11-10 09:00,,,,,,1.16,22.54
2021-11-10 10:00,,,,,,-4.66,22.59
2021-11-10 11:00,,,,,,2.95,22.57
2021-11-10 12:00,,,,,,,
2021-11-10 13:00,,,,,,2.38,21.76
2021-11-10 14:00,,,,,,-0.33,21.76
2021-11-10 15:00,,,,,,2.09,18.81
2021-11-10 16:00,,,,,,,
2021-11-10 17:00,,,,,,-1.17,18.45
2021-11-10 18:00,,,,,,0.46,15.65
2021-11-10 19:00,,,,,,0.55,15.03
2021-11-10 20:00,,,,,,0.54,13.79
2021-11-10 21:00,,,,,,-0.42,16.01
2021-11-10 22:00,,,,,,-0.08,18.10
2021-11-10 23:00,,,,,,0.69,16.83
2021-11-11 00:00,,,,,,2.23,13.87
2021-11-11 01:00,,,,,,1.65,12.00
2021-11-11 02:00,,,,,,-2.39,12.02
2021-11-11 03:00,,,,,,4.09,16.37
2021-11-11 04:00,,,,,,-1.22,16.95
2021-11-11 05:00,,,,,,-2.81,14.95
2021-11-11 06:00,,,,,,1.28,18.64
2021-11-11 07:00,,,,,,-1.51,16.20
2021-11-11 08:00,,,,,,-0.96,19.84
2021-11-11 09:00,,,,,,-1.46,19.95
2021-11-11 10:00,,,,,,1.99,17.26
2021-11-11 11:00,,,,,,-0.58,16.71
2021-11-11 12:00,,,,,,-0.65,13.20
2021-11-11 13:00,,,,,,1.28,10.94
2021-11-11 14:00,,,,,,-0.88,8.23
2021-11-11 15:00,,,,,,-0.40,7.74
2021-11-11 16:00,,,,,,,
2021-11-11 17:00,,,,,,-0.90,7.53
2021-11-11 18:00,,,,,,2.19,7.57
2021-11-11 19:00,,,,,,1.61,9.48
2021-11-11 20:00,,,,,,2.54,11.94
2021-11-11 21:00,,,,,,-1.21,10.71
2021-11-11 22:00,,,,,,2.81,14.24
2021-11-11 23:00,,,,,,-3.08,17.75
2021-11-12 00:00,,,,,,-3.06,20.77
2021-11-12 01:00,,,,,,-2.28,22.73
2021-11-12 02:00,,,,,,1.62,21.87
2021-11-12 03:00,,,,,,-4.40,21.79
2021-11-12 04:00,,,,,,,
2021-11-12 05:00,,,,,,0.95,22.41
2021-11-12 06:00,,,,,,-5.68,24.66
2021-11-12 07:00,,,,,,6.18,28.70
2021-11-12 08:00,,,,,,-3.97,24.29
2021-11-12 09:00,,,,,,-4.82,23.43
2021-11-12 10:00,,,,,,-5.36,25.83
2021-11-12 11:00,,,,,,-6.20,23.84
2021-11-12 12:00,,,,,,-0.08,30.42
2021-11-12 13:00,,,,,,-6.04,27.27
2021-11-12 14:00,,,,,,-8.17,30.40
2021-11-12 15:00,,,,,,-8.12,31.63
2021-11-12 16:00,,,,,,-10.60,27.77
2021-11-12 17:00,,,,,,,28.10
2021-11-12 18:00,,,,,,-10.79,28.33
2021-11-12 19:00,,,,,,-10.87,33.62
2021-11-12 20:00,,,,,,,
2021-11-12 21:00,,,,,,-11.71,40.37
2021-11-12 22:00,,,,,,-0.04,29.95
2021-11-12 23:00,,,,,,-1.56,27.75
2021-11-13 00:00,,,,,,,
2021-11-13 01:00,,,,,,-1.56,24.58
2021-11-13 02:00,,,,,,3.61,23.87
2021-11-13 03:00,,,,,,-2.42,23.19
2021-11-13 04:00,,,,,,5.17,21.42
2021-11-13 05:00,,,,,,-2.42,21.53
2021-11-13 06:00,,,,,,1.53,23.78
2021-11-13 07:00,,,,,,-1.12,17.25
2021-11-13 08:00,,,,,,1.22,15.84
2021-11-13 09:00,,,,,,-0.38,17.62
2021-11-13 10:00,,,,,,0.29,15.19
2021-11-13 11:00,,,,,,1.48,13.26
2021-11-13 12:00,,,,,,0.49,15.10
2021-11-13 13:00,,,,,,0.64,14.17
2021-11-13 14:00,,,,,,0.80,13.46
2021-11-13 15:00,,,,,,0.28,13.29
2021-11-13 16:00,,,,,,0.29,12.50
2021-11-13 17:00,,,,,,1.94,13.92
2021-11-13 18:00,,,,,,-0.71,11.89
2021-11-13 19:00,,,,,,-2.52,15.89
2021-11-13 20:00,,,,,,-0.63,19.80
2021-11-13 21:00,,,,,,4.28,23.11
2021-11-13 22:00,,,,,,-2.00,23.96
2021-11-13 23:00,,,,,,,
2021-11-14 00:00,,,,,,-4.60,21.70
2021-11-14 01:00,,,,,,0.77,20.28
2021-11-14 02:00,,,,,,-0.71,26.55
2021-11-14 03:00,,,,,,,
2021-11-14 04:00,,,,,,-11.20,28.15
2021-11-14 05:00,,,,,,-2.45,30.05
2021-11-14 06:00,,,,,,,
2021-11-14 07:00,,,,,,3.05,28.70
2021-11-14 08:00,,,,,,7.23,21.28
2021-11-14 09:00,,,,,,-5.34,24.48
2021-11-14 10:00,,,,,,-4.93,24.31
2021-11-14 11:00,,,,,,3.41,27.31
2021-11-14 12:00,,,,,,-0.85,23.74
2021-11-14 13:00,,,,,,-3.92,24.52
2021-11-14 14:00,,,,,,-1.49,27.54
2021-11-14 16:00,,,,,,-6.22,25.86
2021-11-14 17:00,,,,,,-4.84,22.61
2021-11-14 18:00,,,,,,2.82,23.62
2021-11-14 19:00,,,,,,-2.26,18.88
2021-11-14 20:00,,,,,,-0.71,18.28
2021-11-14 21:00,,,,,,-0.99,19.45
2021-11-14 22:00,,,,,,-0.09,18.35
2021-11-14 23:00,,,,,,-1.10,18.55
2021-11-15 00:00,,,,,,-1.06,17.67
2021-11-15 01:00,,,,,,-3.15,20.66
2021-11-15 02:00,,,,,,-0.64,18.70
2021-11-15 03:00,,,,,,2.33,17.82
2021-11-15 04:00,,,,,,4.15,20.29
2021-11-15 05:00,,,,,,,
2021-11-15 06:00,,,,,,3.07,20.54
2021-11-15 07:00,,,,,,-3.17,21.37
2021-11-15 08:00,,,,,,-2.08,22.36
2021-11-15 09:00,,,,,,,
2021-11-15 10:00,,,,,,2.40,22.42
2021-11-15 11:00,,,,,,-2.38,19.77
2021-11-15 12:00,,,,,,0.26,18.75
2021-11-15 13:00,,,,,,3.11,22.22
2021-11-15 14:00,,,,,,0.97,21.30
2021-11-15 15:00,,,,,,1.64,16.04
2021-11-15 16:00,,,,,,0.39,19.37
2021-11-15 17:00,,,,,,4.16,25.90
2021-11-15 18:00,,,,,,-3.52,21.72
2021-11-15 19:00,,,,,,-3.10,23.50
2021-11-15 20:00,,,,,,-2.07,19.75
2021-11-15 21:00,,,,,,,
2021-11-15 22:00,,,,,,7.38,24.96
2021-11-15 23:00,,,,,,0.36,26.98
2021-11-16 00:00,,,,,,-3.60,26.05
2021-11-16 01:00,,,,,,-7.44,21.86
2021-11-16 02:00,,,,,,-7.11,22.31
2021-11-16 03:00,,,,,,4.22,23.05
2021-11-16 04:00,,,,,,-6.93,23.66
2021-11-16 05:00,,,,,,1.58,25.79
2021-11-16 06:00,,,,,,6.64,22.09
2021-11-16 07:00,,,,,,-3.31,25.82
2021-11-16 08:00,,,,,,4.28,27.81
2021-11-16 09:00,,,,,,-1.24,26.11
2021-11-16 10:00,,,,,,-4.48,24.53
2021-11-16 11:00,,,,,,0.52,26.07
2021-11-16 12:00,,,,,,-4.20,24.98
2021-11-16 13:00,,,,,,-3.16,23.16
2021-11-16 14:00,,,,,,-4.53,24.66
2021-11-16 15:00,,,,,,-2.01,24.63
2021-11-16 16:00,,,,,,,
2021-11-16 17:00,,,,,,,
2021-11-16 18:00,,,,,,-0.55,25.19
2021-11-16 19:00,,,,,,7.46,24.83
2021-11-16 20:00,,,,,,3.79,26.47
2021-11-16 21:00,,,,,,-5.13,23.62
2021-11-16 22:00,,,,,,-0.78,27.15
2021-11-16 23:00,,,,,,1.03,21.14
2021-11-17 00:00,,,,,,-9.05,31.18
2021-11-17 01:00,,,,,,-1.86,25.69
2021-11-17 02:00,,,,,,-1.53,22.00
2021-11-17 03:00,,,,,,5.13,26.05
2021-11-17 04:00,,,,,,,
2021-11-17 05:00,,,,,,-1.52,20.41
2021-11-17 06:00,,,,,,6.02,21.31
2021-11-17 07:00,,,,,,-1.82,23.02
2021-11-17 08:00,,,,,,2.21,21.39
2021-11-17 09:00,,,,,,1.38,18.62
2021-11-17 10:00,,,,,,2.27,22.75
2021-11-17 11:00,,,,,,2.17,16.41
2021-11-17 12:00,,,,,,-1.08,18.26
2021-11-17 13:00,,,,,,0.43,15.89
2021-11-17 14:00,,,,,,0.19,12.27
2021-11-17 15:00,,,,,,0.75,11.79
2021-11-17 16:00,,,,,,0.70,8.67
2021-11-17 17:00,,,,,,0.69,8.10
2021-11-17 18:00,,,,,,0.49,8.99
2021-11-17 19:00,,,,,,-0.34,10.76
2021-11-17 20:00,,,,,,1.95,8.41
2021-11-17 21:00,,,,,,1.48,8.17
2021-11-17 22:00,,,,,,-1.76,11.18
2021-11-17 23:00,,,,,,2.23,20.65
2021-11-18 00:00,,,,,,6.27,21.67
2021-11-18 01:00,,,,,,-4.33,20.71
2021-11-18 02:00,,,,,,-7.29,25.34
2021-11-18 03:00,,,,,,-6.53,24.52
2021-11-18 04:00,,,,,,-5.22,25.00
2021-11-18 05:00,,,,,,5.01,23.99
2021-11-18 06:00,,,,,,5.10,22.41
2021-11-18 07:00,,,,,,5.34,21.99
2021-11-18 08:00,,,,,,2.53,22.26
2021-11-18 09:00,,,,,,-1.19,20.44
2021-11-18 10:00,,,,,,,
2021-11-18 11:00,,,,,,1.37,18.12
2021-11-18 12:00,,,,,,0.74,16.63
2021-11-18 13:00,,,,,,-0.25,18.84
2021-11-18 14:00,,,,,,-0.28,15.69
2021-11-18 15:00,,,,,,-0.63,18.00
2021-11-18 16:00,,,,,,-0.97,16.81
2021-11-18 17:00,,,,,,3.71,22.07
2021-11-18 18:00,,,,,,2.52,19.24
2021-11-18 19:00,,,,,,4.69,21.74
2021-11-18 20:00,,,,,,,
2021-11-18 21:00,,,,,,7.05,19.70
2021-11-18 22:00,,,,,,-5.80,24.43
2021-11-18 23:00,,,,,,8.88,27.44
2021-11-19 00:00,,,,,,5.47,27.15
2021-11-19 01:00,,,,,,-5.42,21.88
2021-11-19 02:00,,,,,,1.80,24.75
2021-11-19 03:00,,,,,,-3.14,21.22
2021-11-19 04:00,,,,,,-5.65,20.75
2021-11-19 05:00,,,,,,-1.34,24.28
2021-11-19 06:00,,,,,,,
2021-11-19 07:00,,,,,,0.01,26.33
2021-11-19 08:00,,,,,,,
2021-11-19 09:00,,,,,,2.04,16.92
2021-11-19 10:00,,,,,,2.41,12.43
2021-11-19 11:00,,,,,,-0.99,17.48
2021-11-19 12:00,,,,,,-2.56,23.34
2021-11-19 13:00,,,,,,-3.72,22.09
2021-11-19 14:00,,,,,,,
2021-11-19 15:00,,,,,,0.88,25.09
2021-11-19 16:00,,,,,,4.12,23.59
2021-11-19 17:00,,,,,,-5.96,24.12
2021-11-19 18:00,,,,,,-6.31,25.08
2021-11-19 19:00,,,,,,-0.16,24.55
2021-11-19 20:00,,,,,,,
2021-11-19 21:00,,,,,,-3.12,22.95
2021-11-19 22:00,,,,,,-7.66,24.47
2021-11-19 23:00,,,,,,-5.64,25.28
2021-11-20 00:00,,,,,,-3.72,23.61
2021-11-20 01:00,,,,,,-4.59,20.83
2021-11-20 02:00,,,,,,-3.08,18.05
2021-11-20 03:00,,,,,,,
2021-11-20 04:00,,,,,,1.35,24.61
2021-11-20 05:00,,,,,,-2.92,20.35
2021-11-20 06:00,,,,,,,
2021-11-20 07:00,,,,,,4.31,19.88
2021-11-20 08:00,,,,,,-3.38,23.41
2021-11-20 09:00,,,,,,-4.71,25.64
2021-11-20 10:00,,,,,,-3.33,21.65
2021-11-20 11:00,,,,,,4.19,20.44
2021-11-20 12:00,,,,,,-2.48,23.01
2021-11-20 13:00,,,,,,1.45,19.29
2021-11-20 14:00,,,,,,1.13,17.71
2021-11-20 15:00,,,,,,0.22,18.10
2021-11-20 16:00,,,,,,0.35,11.10
2021-11-20 17:00,,,,,,0.40,11.99
2021-11-20 18:00,,,,,,0.17,8.42
2021-11-20 19:00,,,,,,2.22,7.82
2021-11-20 20:00,,,,,,0.00,12.72
2021-11-20 21:00,,,,,,-1.60,15.23
2021-11-20 22:00,,,,,,-2.40,17.74
2021-11-20 23:00,,,,,,1.76,22.46
2021-11-21 00:00,,,,,,,
2021-11-21 01:00,,,,,,-4.51,19.78
2021-11-21 02:00,,,,,,-1.35,24.12
2021-11-21 03:00,,,,,,-4.36,23.94
2021-11-21 04:00,,,,,,3.94,24.10
2021-11-21 05:00,,,,,,,
2021-11-21 06:00,,,,,,-7.17,25.81
2021-11-21 07:00,,,,,,-4.64,24.82
2021-11-21 08:00,,,,,,,
2021-11-21 09:00,,,,,,7.72,22.69
2021-11-21 10:00,,,,,,1.82,23.45
2021-11-21 11:00,,,,,,,
2021-11-21 12:00,,,,,,-1.94,22.26
2021-11-21 13:00,,,,,,-4.90,21.75
2021-11-21 14:00,,,,,,-5.04,24.22
2021-11-21 15:00,,,,,,0.44,19.65
2021-11-21 16:00,,,,,,1.27,16.70
2021-11-21 17:00,,,,,,-1.74,17.09
2021-11-21 18:00,,,,,,-1.98,18.38
2021-11-21 19:00,,,,,,0.95,14.75
2021-11-21 20:00,,,,,,-0.29,13.99
2021-11-21 21:00,,,,,,-1.32,11.91
2021-11-21 22:00,,,,,,-1.07,14.29
2021-11-21 23:00,,,,,,2.85,12.69
2021-11-22 00:00,,,,,,6.42,19.58
2021-11-22 01:00,,,,,,-3.05,24.62
2021-11-22 02:00,,,,,,-6.53,20.76
2021-11-22 03:00,,,,,,-5.99,22.01
2021-11-22 04:00,,,,,,-3.12,25.80
2021-11-22 05:00,,,,,,-0.67,22.66
2021-11-22 06:00,,,,,,-2.65,17.92
2021-11-22 07:00,,,,,,3.84,24.51
2021-11-22 08:00,,,,,,6.13,24.86
2021-11-22 09:00,,,,,,7.41,23.63
2021-11-22 10:00,,,,,,-1.88,23.88
2021-11-22 11:00,,,,,,-2.87,20.67
2021-11-22 12:00,,,,,,0.78,25.24
2021-11-22 13:00,,,,,,-0.69,21.53
2021-11-22 14:00,,,,,,-4.17,21.06
2021-11-22 15:00,,,,,,-3.92,19.56
2021-11-22 16:00,,,,,,-3.01,18.12
2021-11-22 17:00,,,,,,,
2021-11-22 18:00,,,,,,-2.52,19.80
2021-11-22 19:00,,,,,,0.98,18.40
2021-11-22 20:00,,,,,,-0.38,16.58
2021-11-22 21:00,,,,,,-1.08,16.32
2021-11-22 22:00,,,,,,4.86,18.65
2021-11-22 23:00,,,,,,,
2021-11-23 01:00,,,,,,6.04,22.04
2021-11-23 02:00,,,,,,3.74,22.36
2021-11-23 03:00,,,,,,2.98,24.16
2021-11-23 04:00,,,,,,-4.46,22.99
2021-11-23 05:00,,,,,,-5.54,22.31
2021-11-23 06:00,,,,,,4.61,21.23
2021-11-23 07:00,,,,,,1.08,21.19
2021-11-23 08:00,,,,,,2.31,19.78
2021-11-23 09:00,,,,,,,
2021-11-23 10:00,,,,,,3.45,26.94
2021-11-23 11:00,,,,,,-3.91,23.39
2021-11-23 12:00,,,,,,4.39,23.26
2021-11-23 13:00,,,,,,1.53,23.21
2021-11-23 14:00,,,,,,,
2021-11-23 15:00,,,,,,,
2021-11-23 16:00,,,,,,3.83,20.54
2021-11-23 17:00,,,,,,-0.84,19.48
2021-11-23 18:00,,,,,,0.99,24.43
2021-11-23 19:00,,,,,,3.61,22.42
2021-11-23 20:00,,,,,,-5.23,26.01
2021-11-23 21:00,,,,,,-8.77,30.34
2021-11-23 22:00,,,,,,-6.58,27.32
2021-11-23 23:00,,,,,,-5.45,24.72
2021-11-24 00:00,,,,,,6.33,20.00
2021-11-24 01:00,,,,,,,
2021-11-24 02:00,,,,,,-5.67,27.50
2021-11-24 03:00,,,,,,-6.84,25.35
2021-11-24 04:00,,,,,,-6.74,24.72
2021-11-24 05:00,,,,,,-5.98,24.02
2021-11-24 06:00,,,,,,,
2021-11-24 07:00,,,,,,3.02,25.25
2021-11-24 08:00,,,,,,-1.23,22.73
2021-11-24 09:00,,,,,,,
2021-11-24 10:00,,,,,,7.20,23.31
2021-11-24 11:00,,,,,,1.86,22.02
2021-11-24 12:00,,,,,,-6.46,28.59
2021-11-24 13:00,,,,,,-4.28,27.06
2021-11-24 14:00,,,,,,-4.47,24.26
2021-11-24 15:00,,,,,,-5.54,22.37
2021-11-24 16:00,,,,,,3.30,24.82
2021-11-24 17:00,,,,,,1.19,24.19
2021-11-24 18:00,,,,,,-3.36,24.69
2021-11-24 19:00,,,,,,0.50,21.94
2021-11-24 20:00,,,,,,3.11,23.72
2021-11-24 21:00,,,,,,4.11,23.51
2021-11-24 22:00,,,,,,1.69,23.93
2021-11-24 23:00,,,,,,-4.01,23.85
2021-11-25 00:00,,,,,,,
2021-11-25 01:00,,,,,,0.57,22.30
2021-11-25 02:00,,,,,,-0.72,15.30
2021-11-25 03:00,,,,,,-0.11,13.39
2021-11-25 04:00,,,,,,1.44,11.18
2021-11-25 05:00,,,,,,-1.20,10.75
2021-11-25 06:00,,,,,,-1.13,11.29
2021-11-25 07:00,,,,,,0.82,12.39
2021-11-25 08:00,,,,,,-1.31,15.62
2021-11-25 09:00,,,,,,,
2021-11-25 10:00,,,,,,1.63,14.92
2021-11-25 11:00,,,,,,0.77,11.16
2021-11-25 12:00,,,,,,1.13,8.61
2021-11-25 13:00,,,,,,-1.03,8.79
2021-11-25 14:00,,,,,,0.32,11.80
2021-11-25 15:00,,,,,,0.15,9.87
2021-11-25 16:00,,,,,,0.40,7.93
2021-11-25 17:00,,,,,,0.70,8.75
2021-11-25 18:00,,,,,,0.55,7.54
2021-11-25 19:00,,,,,,0.44,7.70
2021-11-25 20:00,,,,,,0.81,7.66
2021-11-25 21:00,,,,,,0.31,7.31
2021-11-25 22:00,,,,,,0.18,6.98
2021-11-25 23:00,,,,,,-0.16,6.35
2021-11-26 00:00,,,,,,-0.66,6.45
2021-11-26 01:00,,,,,,-0.47,5.90
2021-11-26 02:00,,,,,,-1.40,6.71
2021-11-26 03:00,,,,,,-0.47,12.29
2021-11-26 04:00,,,,,,-0.84,9.47
2021-11-26 05:00,,,,,,1.15,15.52
2021-11-26 06:00,,,,,,-0.28,8.36
2021-11-26 07:00,,,,,,-0.22,7.20
2021-11-26 08:00,,,,,,1.12,7.98
2021-11-26 09:00,,,,,,2.02,6.96
2021-11-26 10:00,,,,,,-0.03,6.93
2021-11-26 11:00,,,,,,-0.27,8.13
2021-11-26 12:00,,,,,,-0.35,8.71
2021-11-26 13:00,,,,,,-1.72,12.38
2021-11-26 14:00,,,,,,0.03,14.54
2021-11-26 15:00,,,,,,0.99,10.85
2021-11-26 16:00,,,,,,-1.05,12.74
2021-11-26 17:00,,,,,,0.30,16.07
2021-11-26 18:00,,,,,,1.45,15.51
2021-11-26 19:00,,,,,,-0.28,13.85
2021-11-26 20:00,,,,,,-1.11,12.94
2021-11-26 21:00,,,,,,,
2021-11-26 22:00,,,,,,-0.76,14.77
2021-11-26 23:00,,,,,,-1.75,11.35
2021-11-27 00:00,,,,,,-0.44,15.69
2021-11-27 01:00,,,,,,,
2021-11-27 02:00,,,,,,-4.82,21.98
2021-11-27 03:00,,,,,,-0.70,26.20
2021-11-27 04:00,,,,,,-6.50,21.22
2021-11-27 05:00,,,,,,-6.49,24.63
2021-11-27 06:00,,,,,,-6.78,25.15
2021-11-27 07:00,,,,,,-5.35,26.40
2021-11-27 08:00,,,,,,-8.29,27.22
2021-11-27 09:00,,,,,,-7.68,27.59
2021-11-27 10:00,,,,,,9.36,28.19
2021-11-27 11:00,,,,,,-8.79,25.26
2021-11-27 12:00,,,,,,,
2021-11-27 13:00,,,,,,,
2021-11-27 14:00,,,,,,-8.94,31.31
2021-11-27 15:00,,,,,,-7.74,28.92
2021-11-27 16:00,,,,,,-7.05,27.83
2021-11-27 17:00,,,,,,-2.04,23.80
2021-11-27 18:00,,,,,,,
2021-11-27 19:00,,,,,,7.37,28.07
2021-11-27 20:00,,,,,,-5.01,27.47
2021-11-27 21:00,,,,,,-4.41,26.39
2021-11-27 22:00,,,,,,-3.12,25.82
2021-11-27 23:00,,,,,,-7.11,23.91
2021-11-28 00:00,,,,,,-7.48,26.15
2021-11-28 01:00,,,,,,-8.24,26.42
2021-11-28 02:00,,,,,,-5.95,26.19
2021-11-28 03:00,,,,,,-5.48,27.28
2021-11-28 04:00,,,,,,-4.81,22.48
2021-11-28 05:00,,,,,,,
2021-11-28 06:00,,,,,,1.68,23.56
2021-11-28 07:00,,,,,,-4.61,20.95
2021-11-28 08:00,,,,,,-5.36,21.99
2021-11-28 09:00,,,,,,-0.77,26.62
2021-11-28 10:00,,,,,,-5.77,26.83
2021-11-28 11:00,,,,,,-0.64,26.38
2021-11-28 12:00,,,,,,-4.63,24.32
2021-11-28 13:00,,,,,,,
2021-11-28 14:00,,,,,,-3.22,24.36
2021-11-28 15:00,,,,,,4.27,23.80
2021-11-28 16:00,,,,,,0.99,21.23
2021-11-28 17:00,,,,,,1.38,18.98
2021-11-28 18:00,,,,,,3.51,16.34
2021-11-28 19:00,,,,,,1.42,23.02
2021-11-28 20:00,,,,,,1.50,21.13
2021-11-28 21:00,,,,,,-1.06,17.63
2021-11-28 22:00,,,,,,0.24,16.71
2021-11-28 23:00,,,,,,0.71,17.45
2021-11-29 00:00,,,,,,-0.76,13.29
2021-11-29 01:00,,,,,,2.21,8.52
2021-11-29 02:00,,,,,,-0.75,8.42
2021-11-29 03:00,,,,,,0.64,9.36
2021-11-29 04:00,,,,,,0.65,9.38
2021-11-29 05:00,,,,,,-0.02,7.46
2021-11-29 06:00,,,,,,-1.29,11.43
2021-11-29 07:00,,,,,,0.71,13.31
2021-11-29 08:00,,,,,,-0.59,13.94
2021-11-29 09:00,,,,,,-2.17,16.79
2021-11-29 10:00,,,,,,3.26,17.35
2021-11-29 11:00,,,,,,-0.72,16.50
2021-11-29 12:00,,,,,,-2.42,20.94
2021-11-29 13:00,,,,,,-2.67,19.09
2021-11-29 14:00,,,,,,-2.01,20.02
2021-11-29 15:00,,,,,,-1.33,18.30
2021-11-29 16:00,,,,,,-3.77,21.00
2021-11-29 17:00,,,,,,-0.54,20.31
2021-11-29 18:00,,,,,,-3.04,19.76
2021-11-29 19:00,,,,,,0.16,18.33
2021-11-29 20:00,,,,,,1.15,18.46
2021-11-29 21:00,,,,,,,
2021-11-29 22:00,,,,,,3.02,17.18
2021-11-29 23:00,,,,,,,
2021-11-30 00:00,,,,,,-5.21,23.82
2021-11-30 01:00,,,,,,-4.88,24.81
2021-11-30 02:00,,,,,,0.38,23.48
2021-11-30 03:00,,,,,,,
2021-11-30 04:00,,,,,,-3.04,24.03
2021-11-30 05:00,,,,,,-0.69,21.11
2021-11-30 06:00,,,,,,4.43,20.35
2021-11-30 07:00,,,,,,,
2021-11-30 08:00,,,,,,1.03,18.67
2021-11-30 09:00,,,,,,0.43,23.16
2021-11-30 10:00,,,,,,1.17,19.65
2021-11-30 11:00,,,,,,-0.15,21.39
2021-11-30 12:00,,,,,,1.46,16.35
2021-11-30 13:00,,,,,,1.11,12.40
2021-11-30 14:00,,,,,,-0.24,13.54
2021-11-30 15:00,,,,,,-1.36,13.66
2021-11-30 16:00,,,,,,1.71,14.88
2021-11-30 17:00,,,,,,2.39,18.17
2021-11-30 18:00,,,,,,-3.13,18.88
2021-11-30 19:00,,,,,,-1.04,24.33
2021-11-30 20:00,,,,,,-2.58,16.78
2021-11-30 21:00,,,,,,0.92,21.03
2021-11-30 22:00,,,,,,-4.53,19.68
2021-11-30 23:00,,,,,,2.97,19.76
2021-12-01 00:00,,,,,,0.16,19.89
2021-12-01 01:00,,,,,,-4.15,20.88
2021-12-01 02:00,,,,,,0.19,23.50
2021-12-01 03:00,,,,,,2.33,22.21
2021-12-01 04:00,,,,,,0.20,21.36
2021-12-01 05:00,,,,,,-3.19,19.68
2021-12-01 06:00,,,,,,-2.66,19.54
2021-12-01 07:00,,,,,,-2.02,16.99
2021-12-01 08:00,,,,,,-0.43,17.65
2021-12-01 09:00,,,,,,-1.54,14.78
2021-12-01 10:00,,,,,,-2.61,18.94
2021-12-01 11:00,,,,,,-3.56,22.11
2021-12-01 12:00,,,,,,-0.91,19.05
2021-12-01 13:00,,,,,,-2.67,18.44
2021-12-01 14:00,,,,,,-3.92,19.83
2021-12-01 15:00,,,,,,3.51,19.46
2021-12-01 16:00,,,,,,-4.28,20.63
2021-12-01 17:00,,,,,,4.85,21.96
2021-12-01 18:00,,,,,,0.30,23.37
2021-12-01 19:00,,,,,,1.55,20.79
2021-12-01 20:00,,,,,,0.98,21.94
2021-12-01 21:00,,,,,,2.59,18.32
2021-12-01 22:00,,,,,,-2.03,15.98
2021-12-01 23:00,,,,,,1.99,19.08
2021-12-02 00:00,,,,,,-1.44,17.12
2021-12-02 01:00,,,,,,-0.56,15.97
2021-12-02 02:00,,,,,,1.60,20.55
2021-12-02 03:00,,,,,,1.73,12.33
2021-12-02 04:00,,,,,,0.12,10.08
2021-12-02 05:00,,,,,,-0.04,12.91
2021-12-02 06:00,,,,,,1.66,10.68
2021-12-02 07:00,,,,,,3.09,11.31
2021-12-02 08:00,,,,,,-3.41,19.61
2021-12-02 09:00,,,,,,-3.85,21.48
2021-12-02 10:00,,,,,,-3.58,22.41
2021-12-02 11:00,,,,,,5.66,21.43
2021-12-02 12:00,,,,,,-4.34,21.87
2021-12-02 13:00,,,,,,-5.79,24.57
2021-12-02 14:00,,,,,,-5.12,27.26
2021-12-02 15:00,,,,,,-8.66,28.38
2021-12-02 16:00,,,,,,-2.16,30.35
2021-12-02 17:00,,,,,,,
2021-12-02 18:00,,,,,,4.70,20.97
2021-12-02 19:00,,,,,,3.51,25.80
2021-12-02 20:00,,,,,,-4.86,24.37
2021-12-02 21:00,,,,,,-0.36,23.01
2021-12-02 22:00,,,,,,1.97,22.24
2021-12-02 23:00,,,,,,2.14,19.69
2021-12-03 00:00,,,,,,-2.02,22.87
2021-12-03 01:00,,,,,,1.98,23.88
2021-12-03 02:00,,,,,,1.87,26.24
2021-12-03 03:00,,,,,,-5.94,25.04
2021-12-03 04:00,,,,,,1.76,20.80
2021-12-03 05:00,,,,,,-6.93,21.06
2021-12-03 06:00,,,,,,-4.40,23.36
2021-12-03 07:00,,,,,,6.69,24.11
2021-12-03 08:00,,,,,,-6.51,23.74
2021-12-03 09:00,,,,,,,
2021-12-03 10:00,,,,,,-4.60,26.04
2021-12-03 11:00,,,,,,-2.43,26.32
2021-12-03 12:00,,,,,,-11.65,27.88
2021-12-03 13:00,,,,,,7.34,29.22
2021-12-03 14:00,,,,,,,
2021-12-03 15:00,,,,,,9.34,27.60
2021-12-03 16:00,,,,,,-7.23,27.51
2021-12-03 17:00,,,,,,-7.02,28.96
2021-12-03 18:00,,,,,,6.80,24.62
2021-12-03 19:00,,,,,,-7.82,26.73
2021-12-03 20:00,,,,,,-7.72,21.86
2021-12-03 21:00,,,,,,-4.28,24.57
2021-12-03 22:00,,,,,,-4.34,23.76
2021-12-03 23:00,,,,,,-5.00,25.37
2021-12-04 00:00,,,,,,-5.12,25.31
2021-12-04 01:00,,,,,,2.86,26.57
2021-12-04 02:00,,,,,,-1.47,22.60
2021-12-04 03:00,,,,,,-1.42,20.64
2021-12-04 04:00,,,,,,-0.88,24.77
2021-12-04 05:00,,,,,,1.32,29.01
2021-12-04 06:00,,,,,,,
2021-12-04 07:00,,,,,,2.09,26.94
2021-12-04 08:00,,,,,,1.52,22.90
2021-12-04 09:00,,,,,,3.97,15.62